Vertical_Velocity
-1 -1 -1 -1 -1 -1 -1 -1 -1 -1 -1 -1 -1 -1 -1 -1 -1 -1 -1 -1 -1 -1 -1 -1 -1 -1 -1 -1 -1 -1 -1 -1 -1 -1 -1 -2 -2 -2 -2 -2 -2 -2 -2 -2 -2 -1 -1 -1 -1 -1 -1 -1 -1 -1 -1 -1 -1 -2 -2 -2 -3 -3 -3 -3 -3 -3 -3 -3 -2 -2 -2 -2 -2 -2 -3 -3 -4 -4 -3 -2 -2 -1 -0 0 0 -0 -0 -0 -0 0 0 0 0 0 0 0 -0 -1 -1 -1 -1 -1 -1
-1 -1 -1 -1 -1 -1 -1 -1 -1 -1 -1 -1 -1 -1 -1 -1 -1 -1 -1 -1 -1 -1 -1 -1 -1 -1 -1 -1 -1 -1 -1 -1 -1 -1 -1 -2 -2 -2 -2 -2 -2 -2 -2 -2 -2 -2 -1 -1 -1 -1 -1 -1 -1 -0 -0 -0 -0 -0 -0 -1 -2 -2 -2 -2 -2 -3 -3 -3 -3 -3 -3 -2 -2 -2 -2 -2 -3 -3 -4 -4 -4 -3 -2 -1 -0 0 1 0 0 -0 -0 -0 -0 -0 0 0 0 0 -0 -0 -1 -1 -1
-1 -1 -1 -1 -1 -1 -1 -1 -1 -1 -1 -1 -1 -1 -0 -1 -1 -1 -0 -1 -1 -1 -1 -1 -1 -1 -1 -1 -1 -1 -1 -1 -1 -1 -1 -2 -2 -2 -2 -2 -2 -2 -2 -2 -2 -2 -2 -1 -1 -1 -1 -1 -1 -0 -0 -0 -0 0 0 0 -0 -1 -1 -1 -1 -1 -2 -2 -3 -3 -3 -3 -3 -3 -3 -2 -2 -2 -2 -3 -4 -4 -4 -4 -3 -2 -0 0 1 1 1 0 -0 -1 -1 -0 -0 0 0 0 0 -1 -1
-1 -1 -1 -1 -1 -1 -1 -1 -1 -1 -1 -1 -1 -1 -1 -1 -1 -1 -0 -0 -0 -1 -1 -1 -1 -1 -1 -1 -1 -1 -1 -1 -1 -1 -1 -1 -1 -1 -1 -1 -1 -1 -2 -2 -2 -2 -2 -2 -1 -1 -1 -1 -1 -1 -0 -0 -0 -0 0 0 0 -0 -1 -1 -1 -1 -1 -1 -1 -2 -2 -2 -3 -3 -3 -3 -2 -2 -2 -2 -2 -2 -3 -4 -4 -5 -4 -3 -1 -0 1 1 1 0 -0 -0 -1 -1 -0 0 0 0 -0
-1 -1 -2 -2 -2 -1 -1 -1 -1 -1 -1 -1 -1 -1 -1 -1 -1 -1 -1 -0 -0 -0 -1 -1 -1 -1 -1 -1 -1 -1 -1 -1 -1 -1 -1 -1 -1 -1 -1 -1 -1 -1 -1 -1 -2 -2 -2 -2 -2 -2 -2 -2 -1 -1 -1 -1 -1 -1 -0 -0 -0 -0 -0 -1 -1 -1 -0 -0 -1 -1 -1 -1 -2 -2 -3 -3 -3 -2 -2 -2 -1 -1 -1 -2 -2 -3 -4 -5 -4 -4 -2 -1 0 1 1 0 0 -0 -0 -0 -0 0 0
-1 -1 -2 -2 -1 -1 -2 -2 -2 -2 -2 -1 -1 -1 -1 -1 -1 -1 -1 -0 -0 -0 -1 -1 -1 -1 -1 -1 -1 -1 -1 -1 -1 -1 -1 -1 -1 -1 -1 -1 -1 -1 -1 -1 -1 -1 -2 -2 -2 -2 -2 -2 -2 -2 -1 -1 -1 -1 -1 -1 -1 -1 -0 -1 -1 -1 -1 -1 -1 -1 -1 -1 -1 -1 -2 -2 -2 -2 -2 -2 -2 -1 -1 -1 -1 -1 -2 -3 -3 -4 -5 -4 -3 -2 -0 0 1 1 0 0 -0 -0 -0
-1 -1 -2 -2 -1 -1 -1 -1 -1 -1 -1 -1 -1 -1 -1 -1 -1 -1 -1 -1 -1 -0 -1 -1 -1 -1 -1 -1 -1 -1 -1 -1 -1 -1 -1 -1 -1 -1 -1 -1 -1 -1 -1 -1 -1 -1 -1 -2 -2 -2 -2 -2 -2 -2 -2 -2 -2 -2 -2 -2 -2 -2 -1 -1 -1 -2 -2 -2 -2 -2 -1 -2 -2 -2 -2 -2 -2 -2 -2 -2 -2 -1 -1 -1 -1 -1 -1 -1 -1 -2 -3 -3 -4 -4 -4 -2 -1 0 1 1 1 0 0
-1 -1 -1 -1 -1 -1 -1 -1 -1 -1 -1 -1 -1 -1 -1 -1 -1 -1 -1 -1 -1 -1 -1 -1 -1 -1 -1 -1 -1 -1 -1 -1 -1 -1 -1 -1 -1 -1 -1 -1 -1 -1 -1 -1 -1 -1 -1 -1 -1 -2 -2 -2 -2 -2 -2 -2 -2 -2 -2 -2 -2 -2 -2 -2 -2 -2 -3 -3 -3 -3 -3 -3 -3 -3 -3 -3 -3 -3 -3 -3 -2 -2 -2 -2 -1 -1 -1 -1 -1 -1 -1 -2 -2 -2 -3 -3 -3 -2 -1 -1 0 1 1
-1 -1 -1 -1 -1 -1 -1 -1 -1 -1 -1 -1 -1 -1 -1 -1 -1 -1 -1 -1 -1 -1 -1 -1 -1 -1 -1 -1 -1 -1 -1 -1 -1 -1 -1 -1 -1 -1 -1 -1 -1 -1 -1 -1 -1 -1 -1 -1 -1 -1 -2 -2 -2 -2 -2 -2 -2 -2 -2 -2 -2 -2 -2 -2 -2 -2 -2 -3 -3 -3 -3 -3 -4 -4 -4 -4 -4 -4 -4 -4 -4 -4 -3 -3 -3 -2 -2 -2 -2 -2 -2 -1 -1 -1 -1 -2 -2 -2 -3 -2 -2 -1 -0
-1 -1 -1 -1 -1 -1 -1 -1 -1 -1 -1 -1 -1 -1 -1 -1 -1 -1 -1 -1 -1 -1 -1 -1 -1 -1 -1 -1 -1 -1 -1 -1 -1 -1 -1 -1 -1 -1 -1 -1 -1 -1 -1 -1 -1 -1 -1 -1 -1 -1 -2 -2 -2 -2 -2 -2 -2 -2 -2 -2 -2 -2 -2 -2 -2 -2 -2 -2 -2 -2 -2 -2 -3 -3 -3 -4 -4 -4 -4 -4 -5 -5 -5 -5 -4 -4 -4 -3 -3 -2 -2 -2 -2 -2 -1 -1 -1 -1 -2 -2 -2 -2 -2
-1 -1 -1 -1 -1 -1 -1 -1 -1 -1 -1 -1 -1 -1 -1 -1 -1 -1 -1 -1 -1 -1 -1 -1 -1 -1 -1 -1 -1 -1 -1 -1 -1 -1 -0 -1 -1 -1 -1 -1 -1 -2 -1 -1 -1 -1 -1 -1 -1 -1 -1 -1 -1 -2 -2 -2 -2 -2 -2 -2 -2 -2 -2 -2 -2 -1 -1 -1 -1 -1 -1 -1 -1 -1 -2 -2 -2 -2 -3 -3 -3 -4 -4 -5 -5 -5 -5 -4 -4 -3 -3 -3 -2 -2 -2 -2 -2 -2 -2 -1 -1 -1 -2
-1 -1 -1 -1 -1 -2 -2 -1 -1 -1 -1 -1 -1 -1 -1 -1 -1 -1 -1 -1 -1 -1 -1 -1 -1 -1 -1 -1 -1 -1 -1 -1 -1 -1 -0 -0 -0 -1 -1 -1 -1 -1 -2 -1 -1 -1 -1 -1 -1 -1 -1 -1 -1 -1 -1 -1 -1 -1 -1 -1 -1 -1 -2 -2 -1 -1 -1 -1 -1 -1 -1 -1 -1 -1 -1 -1 -1 -1 -1 -2 -2 -2 -3 -3 -4 -4 -4 -5 -4 -4 -4 -3 -3 -3 -3 -3 -3 -3 -3 -2 -2 -2 -1
-1 -1 -1 -1 -1 -2 -2 -2 -1 -1 -1 -1 -1 -1 -1 -1 -1 -1 -1 -1 -1 -1 -1 -1 -1 -1 -1 -1 -1 -1 -1 -1 -1 -1 -1 -1 -0 -0 -1 -1 -1 -1 -1 -1 -1 -1 -1 -1 -1 -1 -1 -1 -1 -1 -1 -1 -1 -1 -1 -1 -1 -1 -1 -1 -1 -1 -1 -1 -1 -1 -1 -1 -1 -1 -1 -1 -1 -1 -1 -1 -2 -2 -2 -2 -2 -3 -3 -4 -4 -4 -4 -3 -3 -3 -3 -3 -3 -3 -3 -3 -3 -3 -2
-1 -1 -1 -1 -1 -1 -2 -2 -2 -2 -2 -2 -2 -2 -2 -1 -1 -1 -1 -1 -1 -1 -1 -1 -1 -1 -1 -1 -1 -1 -1 -1 -1 -1 -1 -1 -1 -0 -0 -1 -1 -1 -1 -1 -1 -1 -1 -1 -1 -1 -1 -1 -0 -0 -1 -0 -0 -0 -0 -0 -0 -1 -1 -1 -1 -1 -1 -1 -1 -1 -1 -1 -1 -1 -1 -1 -2 -2 -2 -2 -2 -2 -2 -2 -2 -2 -2 -3 -3 -3 -3 -4 -4 -3 -3 -3 -2 -2 -2 -3 -3 -4 -4
-1 -1 -1 -1 -1 -1 -1 -2 -2 -2 -2 -2 -2 -2 -2 -2 -2 -1 -1 -1 -1 -1 -1 -1 -1 -1 -1 -1 -1 -1 -1 -1 -1 -1 -2 -1 -1 -1 -1 -1 -1 -1 -1 -1 -1 -1 -1 -1 -0 -0 -0 -0 -0 -0 -0 -0 -0 -0 -0 -0 -0 -0 -0 -1 -1 -1 -1 -1 -1 -1 -1 -1 -1 -1 -1 -1 -1 -2 -2 -2 -3 -3 -3 -3 -3 -3 -3 -3 -3 -4 -4 -4 -4 -4 -4 -3 -3 -2 -2 -2 -2 -3 -3
-1 -1 -1 -1 -1 -1 -1 -2 -2 -2 -2 -2 -2 -2 -2 -2 -2 -2 -2 -2 -1 -1 -1 -1 -1 -1 -1 -1 -1 -1 -1 -1 -1 -1 -1 -2 -2 -1 -1 -1 -1 -1 -1 -1 -1 -0 -0 -0 -0 0 0 0 0 -0 0 -0 -0 -0 -0 0 0 0 -0 -0 -0 -1 -1 -1 -1 -1 -1 -1 -1 -1 -1 -0 -1 -1 -1 -2 -2 -2 -3 -3 -3 -3 -3 -4 -4 -4 -4 -5 -5 -5 -5 -4 -4 -4 -3 -2 -2 -2 -2
-1 -1 -1 -1 -1 -1 -1 -1 -2 -2 -2 -2 -2 -2 -2 -3 -3 -3 -3 -2 -2 -2 -2 -2 -1 -1 -1 -1 -1 -1 -1 -1 -1 -1 -1 -1 -1 -1 -1 -1 -1 -1 -1 -1 -1 -0 -0 -0 0 0 0 0 0 0 0 0 -0 -0 0 0 0 0 0 0 -0 -0 -0 -0 -0 -0 -1 -1 -1 -0 -0 -0 -0 -0 -1 -1 -1 -2 -2 -2 -3 -3 -3 -3 -4 -4 -5 -5 -5 -5 -5 -6 -5 -5 -5 -4 -3 -3 -2
-1 -1 -1 -1 -1 -1 -1 -1 -2 -2 -2 -2 -2 -2 -2 -2 -3 -3 -3 -3 -3 -3 -3 -2 -2 -2 -2 -1 -1 -1 -1 -1 -1 -1 -1 -1 -1 -1 -1 -1 -1 -1 -1 -1 -1 -1 -0 -0 0 0 0 1 0 0 0 0 0 -0 -0 -0 -0 -0 -0 0 -0 -0 -0 -0 -0 -0 -0 -0 -0 -0 -0 -0 -0 -0 -0 -0 -0 -1 -1 -1 -2 -2 -2 -2 -3 -3 -4 -4 -4 -5 -5 -6 -6 -6 -6 -6 -5 -5 -4
-1 -1 -2 -2 -2 -2 -1 -2 -2 -2 -2 -2 -2 -2 -2 -2 -2 -2 -3 -3 -3 -3 -3 -3 -3 -2 -2 -2 -2 -1 -1 -1 -1 -1 -1 -1 -1 -1 -1 -1 -1 -1 -1 -1 -1 -1 -1 -0 -0 -0 0 0 1 1 1 0 0 -0 -0 -0 -0 -0 -0 -0 -0 -0 -0 -0 -0 -0 -0 -0 -0 -0 -0 -0 -1 -1 -0 -0 0 -0 -0 -1 -1 -1 -2 -2 -2 -2 -2 -2 -3 -3 -4 -5 -6 -6 -7 -7 -7 -6 -6
-1 -2 -2 -2 -2 -2 -2 -2 -2 -2 -2 -2 -1 -1 -1 -1 -1 -1 -2 -2 -2 -2 -2 -2 -2 -2 -2 -2 -2 -1 -1 -1 -1 -1 -1 -1 -1 -1 -1 -1 -1 -1 -1 -1 -1 -1 -1 -1 -1 -1 -0 0 0 1 1 0 0 -0 -0 -0 -1 -1 -1 -1 -1 -1 -1 -1 -1 -1 -0 -0 -0 -0 -0 -1 -1 -1 -1 -0 -0 -0 -0 -0 -1 -1 -1 -1 -1 -1 -1 -1 -2 -2 -3 -3 -4 -5 -6 -6 -7 -7 -7
-2 -2 -2 -2 -2 -2 -2 -2 -2 -1 -1 -1 -1 -1 -1 -1 -1 -1 -1 -1 -1 -1 -1 -1 -2 -2 -2 -2 -1 -1 -1 -1 -0 -0 -0 -0 -0 -0 -1 -1 -1 -0 -1 -1 -1 -1 -1 -1 -1 -1 -1 -1 0 0 1 1 0 -0 -0 -0 -1 -1 -1 -1 -1 -1 -1 -1 -1 -1 -1 -1 -1 -1 -1 -1 -1 -1 -1 -1 -1 -0 -0 -0 -0 -0 -1 -1 -1 -1 -1 -1 -1 -2 -2 -2 -3 -4 -4 -5 -5 -6 -7
-1 -1 -2 -2 -2 -2 -2 -2 -1 -1 -1 -1 -1 -1 -1 -1 -1 -1 -1 -1 -1 -1 -1 -1 -1 -1 -1 -1 -1 -1 -1 -0 -0 -0 -0 0 0 0 -0 -0 -0 -0 -0 -0 -0 -1 -1 -1 -1 -1 -1 -1 -1 -0 1 1 1 0 -0 -0 -1 -1 -1 -1 -1 -1 -1 -1 -1 -1 -1 -1 -1 -1 -1 -1 -1 -1 -1 -1 -1 -1 -0 -0 -0 -0 -0 -0 -0 -1 -1 -1 -1 -1 -1 -2 -2 -3 -3 -4 -4 -5 -5
-1 -1 -1 -1 -1 -1 -1 -1 -1 -1 -1 -1 -1 -1 -1 -1 -1 -1 -1 -1 -1 -1 -1 -1 -1 -1 -1 -1 -1 -1 -1 -1 -1 -0 -1 -1 -0 0 0 -0 -0 -0 -0 -0 -0 -0 -1 -1 -1 -1 -1 -1 -1 -1 0 0 1 0 0 -0 -0 -1 -1 -1 -1 -1 -1 -1 -2 -1 -1 -1 -1 -1 -1 -1 -1 -1 -1 -2 -1 -1 -1 -0 -0 -0 -0 -0 -0 -0 -0 -0 -1 -1 -1 -1 -2 -2 -2 -3 -4 -4 -5
-1 -1 -1 -1 -1 -1 -1 -1 -1 -1 -1 -1 -1 -1 -2 -2 -1 -1 -1 -1 -1 -1 -1 -1 -1 -1 -1 -1 -1 -2 -1 -1 -1 -1 -1 -1 -1 -1 -0 -0 -0 -0 -0 -1 -0 -0 -0 -1 -1 -1 -1 -1 -1 -1 -0 0 0 0 0 0 -0 -0 -0 -1 -1 -1 -1 -1 -1 -1 -1 -1 -1 -1 -1 -1 -1 -1 -1 -2 -2 -1 -1 -1 -0 -0 0 0 0 0 -0 -0 -0 -0 -1 -1 -1 -1 -2 -2 -3 -4 -4
-1 -1 -1 -1 -1 -1 -1 -1 -1 -2 -2 -1 -1 -1 -2 -2 -2 -2 -2 -2 -2 -2 -1 -1 -1 -1 -1 -1 -2 -2 -1 -2 -2 -2 -2 -1 -2 -2 -1 -1 -1 -1 -1 -1 -1 -1 -0 -0 -1 -1 -1 -1 -1 -1 -1 -0 -0 0 0 0 0 -0 -0 -0 -0 -0 -1 -1 -1 -1 -1 -1 -1 -1 -0 -0 -1 -1 -1 -1 -1 -1 -1 -1 -1 -0 0 0 1 0 0 0 -0 -0 -0 -0 -1 -1 -1 -1 -2 -3 -4
-1 -1 -2 -2 -1 -2 -2 -1 -1 -2 -2 -2 -2 -1 -2 -2 -2 -2 -2 -2 -2 -2 -2 -2 -2 -2 -1 -1 -2 -2 -2 -1 -2 -2 -2 -2 -2 -2 -2 -2 -1 -1 -1 -1 -1 -1 -1 -0 -0 -0 -0 -1 -1 -1 -1 -1 -0 0 0 0 0 -0 -0 -0 -0 -0 -0 -0 -0 -1 -1 -1 -1 -1 -0 -0 -0 -0 -0 -0 -1 -1 -1 -1 -1 -0 0 0 0 1 1 1 0 0 0 -0 -0 -0 -1 -1 -1 -2 -3
-2 -2 -2 -2 -2 -2 -2 -2 -2 -2 -2 -2 -2 -2 -2 -2 -2 -2 -2 -2 -2 -2 -2 -3 -2 -2 -2 -2 -2 -2 -2 -2 -2 -2 -2 -2 -2 -2 -2 -2 -2 -1 -1 -1 -1 -1 -1 -0 -0 0 0 0 -0 -1 -1 -1 -1 -0 0 0 0 -0 -0 -0 -0 0 -0 -0 -0 -0 -0 -0 -0 -0 -0 0 0 0 1 0 0 -0 -1 -1 -1 -0 -0 0 0 0 1 1 1 1 0 -0 -0 -0 -0 -0 -1 -1 -1
-2 -2 -2 -2 -2 -2 -2 -2 -2 -2 -2 -2 -2 -2 -2 -2 -2 -2 -2 -2 -2 -2 -2 -3 -3 -2 -2 -2 -2 -2 -3 -2 -2 -2 -2 -2 -2 -2 -2 -2 -2 -2 -1 -1 -1 -1 -1 -0 0 0 1 1 1 0 -0 -0 -0 -0 0 0 0 0 -0 -0 -0 -0 0 0 -0 -0 0 0 0 0 0 0 0 1 1 1 1 1 0 0 0 0 -0 -0 0 0 1 1 1 1 1 0 -0 -1 -1 -1 -1 -0 -0
-2 -2 -1 -2 -2 -2 -2 -2 -2 -2 -2 -2 -2 -2 -2 -1 -1 -2 -2 -2 -2 -2 -1 -2 -2 -2 -2 -2 -2 -2 -3 -2 -3 -3 -3 -2 -2 -2 -2 -2 -3 -2 -2 -1 -1 -1 -1 -0 0 1 1 1 1 1 1 0 0 0 1 1 1 0 0 0 -0 -0 0 0 0 0 0 0 0 0 0 0 1 1 1 1 1 1 1 1 1 1 1 0 0 0 1 1 1 1 1 0 -0 -0 -1 -1 -1 -1 -0
-2 -2 -1 -1 -1 -1 -1 -1 -1 -1 -1 -1 -1 -2 -3 -2 -1 -1 -2 -2 -2 -2 -1 -1 -2 -2 -2 -2 -2 -2 -3 -2 -2 -3 -3 -3 -2 -2 -2 -2 -3 -3 -3 -2 -2 -1 -1 -1 -1 0 1 1 2 2 2 1 1 1 1 1 1 1 1 0 0 0 0 0 0 0 0 0 0 0 0 0 0 1 1 1 1 1 1 1 1 1 1 1 1 1 1 1 1 1 1 0 0 -0 -1 -1 -1 -1 -1
-1 -2 -1 -1 -1 -1 -1 -1 -1 -1 -1 -0 -1 -1 -2 -2 -1 -1 -1 -1 -2 -2 -2 -2 -1 -1 -2 -2 -2 -2 -2 -2 -2 -2 -3 -3 -3 -2 -2 -2 -3 -3 -3 -3 -2 -2 -2 -2 -1 -1 -0 0 1 2 2 2 1 1 1 1 2 1 1 1 1 0 0 0 0 0 0 0 1 1 1 0 0 0 0 1 1 1 1 1 1 1 1 2 2 1 1 1 1 1 1 1 1 0 -0 -1 -1 -1 -1
-1 -1 -1 -1 -1 -1 -1 -0 -1 -1 -1 -0 -0 -1 -2 -2 -1 -1 -2 -1 -1 -2 -2 -2 -2 -2 -2 -2 -2 -2 -2 -2 -2 -2 -3 -3 -3 -3 -2 -2 -2 -3 -3 -3 -3 -3 -3 -2 -2 -2 -2 -1 -1 0 1 1 1 1 1 1 1 2 2 1 1 1 0 0 0 0 0 0 0 0 1 1 1 0 0 0 0 0 1 1 1 1 1 1 1 1 2 1 1 1 2 1 1 1 1 -0 -1 -1 -1
-1 -1 -1 -0 -0 -1 -1 -1 -1 -1 -1 -0 -0 -1 -2 -2 -2 -1 -1 -2 -2 -2 -2 -2 -2 -2 -1 -2 -2 -2 -2 -1 -1 -2 -3 -3 -3 -3 -3 -3 -3 -3 -3 -3 -3 -3 -3 -3 -3 -3 -3 -3 -2 -2 -1 -0 0 0 0 0 1 1 2 2 1 1 1 0 -0 -0 -0 -0 0 0 0 0 1 1 0 0 0 0 0 1 1 1 1 1 1 1 1 1 1 2 2 2 1 1 1 1 -0 -1 -1
-1 -1 -1 -1 -1 -1 -1 -1 -1 -1 -1 -1 -0 -0 -1 -2 -2 -2 -1 -1 -2 -2 -2 -2 -2 -2 -1 -1 -2 -2 -2 -2 -1 -1 -2 -3 -3 -3 -3 -3 -3 -3 -3 -3 -3 -4 -4 -3 -3 -4 -4 -4 -3 -3 -2 -1 -1 -0 -0 -0 0 0 1 1 1 1 1 0 -0 -1 -1 -1 -0 -0 0 0 0 1 1 0 0 0 0 1 1 1 1 1 1 1 1 1 1 1 1 1 1 1 1 1 0 -0 -1
-1 -1 -1 -1 -1 -1 -0 -1 -1 -1 -1 -1 -1 -0 -0 -1 -2 -2 -1 -1 -2 -2 -2 -2 -2 -2 -2 -1 -1 -2 -3 -2 -1 -1 -1 -2 -3 -3 -2 -3 -3 -3 -4 -4 -4 -3 -3 -3 -3 -3 -3 -4 -4 -3 -3 -2 -1 -1 -0 -0 -0 -0 0 0 0 0 -0 -0 -1 -1 -1 -1 -1 -1 -0 -0 0 0 0 0 0 0 0 0 1 1 1 1 2 1 1 1 1 0 0 0 0 0 0 0 0 -0 -1
-2 -2 -2 -1 -1 -1 -1 -1 -1 -1 -1 -1 -1 -1 -0 -1 -1 -1 -2 -2 -2 -2 -3 -2 -2 -2 -2 -2 -2 -2 -3 -2 -2 -1 -1 -1 -1 -2 -2 -2 -3 -3 -3 -4 -4 -4 -3 -3 -3 -3 -3 -3 -4 -3 -3 -2 -2 -1 -1 -1 -1 -1 -1 -1 -1 -1 -1 -1 -2 -2 -2 -2 -2 -2 -1 -1 -1 -1 -1 -1 -1 -0 -0 -0 -0 0 0 1 1 1 1 1 0 -1 -1 -1 -1 -1 -2 -1 -1 -1 -1
-2 -2 -2 -2 -1 -1 -2 -2 -2 -1 -1 -1 -1 -1 -1 -1 -1 -1 -1 -2 -2 -2 -3 -2 -3 -3 -2 -2 -2 -3 -3 -2 -2 -2 -2 -1 -1 -1 -1 -2 -2 -2 -2 -3 -3 -3 -4 -4 -4 -3 -4 -4 -4 -4 -4 -3 -3 -2 -2 -2 -1 -1 -1 -2 -2 -2 -2 -2 -3 -3 -3 -3 -3 -3 -3 -2 -2 -2 -2 -2 -2 -2 -2 -2 -1 -1 -1 -1 -0 0 0 0 -0 -1 -1 -2 -2 -3 -3 -3 -3 -3 -3
-1 -2 -2 -2 -1 -1 -1 -2 -2 -2 -1 -1 -1 -1 -1 -1 -1 -1 -1 -1 -2 -2 -2 -2 -3 -3 -2 -2 -2 -3 -3 -2 -2 -3 -3 -3 -2 -2 -2 -2 -1 -2 -2 -3 -3 -3 -4 -5 -5 -5 -5 -5 -5 -5 -5 -4 -4 -3 -3 -2 -2 -2 -2 -2 -2 -2 -2 -2 -2 -3 -3 -4 -4 -3 -3 -3 -3 -3 -3 -4 -4 -3 -3 -3 -3 -3 -3 -2 -2 -1 -1 -1 -1 -1 -2 -2 -3 -3 -4 -5 -5 -5 -5
-1 -1 -2 -1 -1 -1 -1 -1 -2 -2 -2 -1 -2 -2 -1 -1 -1 -1 -0 -1 -1 -2 -1 -2 -3 -3 -2 -2 -3 -3 -3 -2 -2 -3 -3 -2 -3 -3 -3 -2 -2 -2 -2 -3 -4 -4 -4 -5 -6 -6 -6 -7 -7 -6 -6 -5 -5 -4 -4 -3 -3 -3 -2 -2 -1 -1 -0 -0 -1 -1 -2 -2 -3 -2 -2 -2 -3 -3 -3 -4 -4 -4 -4 -4 -4 -4 -3 -3 -3 -3 -3 -2 -2 -2 -2 -2 -3 -4 -5 -5 -6 -6 -6
-1 -1 -1 -1 -1 -1 -1 -1 -1 -2 -2 -2 -2 -2 -1 -0 -1 -1 -1 -0 -1 -1 -0 -1 -1 -2 -3 -2 -2 -3 -4 -2 -2 -3 -3 -2 -2 -3 -3 -2 -2 -2 -3 -3 -4 -4 -5 -5 -5 -6 -7 -7 -7 -7 -7 -6 -5 -5 -4 -4 -3 -3 -2 -2 -2 -1 -0 0 1 0 -0 -1 -1 -1 -1 -1 -1 -2 -2 -3 -3 -4 -4 -4 -4 -4 -3 -3 -3 -3 -3 -3 -3 -3 -2 -3 -3 -4 -5 -6 -6 -6 -6
-1 -1 -1 -0 -0 -0 -0 -1 -1 -1 -1 -2 -2 -2 -2 -1 -1 -0 -1 -0 -1 -1 -1 -0 0 -0 -2 -2 -1 -2 -4 -3 -2 -2 -4 -2 -2 -2 -3 -2 -2 -2 -2 -2 -3 -4 -4 -5 -5 -5 -6 -7 -7 -7 -7 -6 -6 -5 -4 -4 -4 -4 -3 -3 -2 -2 -1 -1 -0 0 0 -0 -1 -1 -0 -0 -0 -1 -1 -2 -3 -3 -3 -4 -4 -3 -3 -3 -2 -2 -3 -3 -3 -3 -3 -3 -3 -4 -5 -6 -6 -7 -7
-1 -1 -0 -0 -0 0 1 -0 -1 -1 -1 -2 -2 -1 -1 -1 -1 -0 0 0 -1 -1 -1 -1 -0 0 -0 -1 -0 -0 -2 -3 -3 -2 -2 -3 -3 -2 -2 -2 -2 -2 -1 -1 -2 -3 -3 -3 -3 -4 -4 -6 -7 -7 -8 -7 -6 -5 -5 -5 -5 -5 -4 -4 -4 -3 -3 -2 -2 -2 -1 -1 -1 -1 -1 -1 -1 -1 -1 -2 -2 -3 -3 -3 -3 -3 -3 -2 -2 -1 -2 -2 -3 -3 -3 -3 -4 -4 -5 -6 -7 -7 -7
0 0 -0 0 0 1 1 1 -0 -1 -1 -1 -2 -1 -1 -2 -2 -1 -0 0 0 -1 -2 -1 -1 -1 -1 -1 -0 0 1 -1 -2 -2 -1 -2 -3 -3 -2 -2 -2 -2 -1 -1 -1 -2 -2 -2 -2 -2 -3 -3 -5 -7 -7 -7 -6 -5 -4 -5 -5 -5 -5 -5 -5 -4 -4 -4 -3 -3 -3 -2 -2 -2 -2 -2 -1 -2 -2 -2 -3 -3 -3 -3 -3 -3 -3 -2 -2 -1 -1 -1 -2 -2 -2 -3 -3 -4 -5 -6 -7 -7 -8
0 1 1 0 1 1 1 1 0 -0 -1 -1 -2 -2 -1 -2 -1 -1 -1 -0 0 0 -2 -1 -0 -0 -2 -2 -2 -1 1 -0 -1 -2 -1 -1 -1 -2 -3 -3 -2 -2 -1 -1 -1 -1 -1 -1 -1 -1 -2 -2 -3 -5 -7 -6 -5 -5 -4 -4 -4 -4 -5 -5 -5 -4 -4 -4 -4 -4 -4 -4 -3 -2 -2 -2 -2 -2 -2 -3 -4 -4 -4 -4 -4 -4 -4 -3 -2 -2 -1 -1 -1 -1 -1 -2 -2 -3 -5 -6 -7 -8 -8
0 1 1 1 1 1 2 2 1 0 -1 -1 -2 -2 -2 -2 -1 -1 -1 -2 -1 0 -1 -2 -1 0 -0 -1 -2 -2 -1 -0 -0 -0 0 -0 -1 -1 -2 -3 -3 -2 -1 -1 -1 -1 -1 -0 -0 -0 -1 -1 -2 -3 -5 -5 -5 -4 -4 -4 -4 -4 -5 -5 -5 -5 -5 -4 -4 -5 -4 -4 -4 -3 -2 -2 -2 -2 -2 -3 -4 -4 -5 -5 -5 -4 -4 -4 -3 -3 -2 -2 -2 -1 -1 -1 -2 -3 -5 -6 -7 -8 -8
1 1 1 1 1 1 1 2 2 1 -0 -2 -2 -2 -2 -2 -1 -1 -1 -2 -2 -2 -1 -2 -1 -1 -1 -1 -1 -2 -3 -1 -1 -0 -0 1 1 0 -2 -3 -2 -1 -0 -2 -2 -1 -1 -0 0 1 -0 -1 -2 -3 -4 -5 -5 -4 -3 -4 -4 -4 -5 -5 -5 -5 -5 -5 -5 -5 -5 -5 -5 -5 -4 -3 -3 -2 -2 -2 -3 -4 -5 -5 -5 -5 -4 -4 -3 -3 -4 -3 -3 -2 -2 -2 -3 -4 -5 -6 -7 -8 -9
1 2 2 1 0 0 0 1 2 1 -0 -1 -2 -2 -3 -3 -2 -1 -1 -2 -3 -4 -3 -2 -2 -2 -1 -2 -1 -1 -2 -3 -1 -1 -2 -1 1 3 1 -2 -2 -1 2 -1 -2 -2 -1 -1 -1 -0 0 -1 -2 -4 -5 -5 -4 -4 -4 -4 -4 -4 -4 -5 -5 -5 -5 -6 -6 -6 -6 -6 -6 -5 -5 -5 -4 -4 -3 -3 -3 -3 -4 -5 -5 -5 -4 -3 -3 -3 -3 -4 -4 -3 -3 -4 -4 -5 -7 -8 -9 -9 -10
1 2 2 2 1 -0 -1 0 1 1 0 -1 -2 -3 -4 -3 -3 -1 -1 -0 -1 -3 -5 -2 -2 -2 -2 -2 -2 -1 -1 -3 -2 -1 0 -3 -3 -1 3 3 0 -1 -0 0 -1 -2 -2 -1 -1 -2 -1 -2 -3 -5 -5 -5 -4 -4 -4 -5 -5 -5 -4 -5 -5 -5 -5 -6 -6 -7 -7 -6 -6 -6 -6 -5 -5 -5 -5 -4 -4 -4 -4 -5 -5 -5 -4 -3 -3 -3 -3 -3 -3 -4 -4 -5 -5 -7 -8 -9 -10 -10 -11
1 1 2 1 0 -1 -1 -1 0 1 0 -1 -3 -3 -4 -3 -3 -2 -2 -0 -0 -1 -4 -3 -1 -0 -2 -3 -3 -1 0 -1 -3 -3 -1 1 -3 -7 -7 0 2 1 -0 0 0 -0 -2 -0 0 0 -0 -2 -4 -6 -6 -5 -5 -5 -5 -4 -5 -5 -5 -5 -5 -5 -5 -5 -6 -7 -7 -7 -7 -6 -6 -6 -6 -6 -6 -6 -6 -6 -6 -6 -6 -5 -5 -4 -3 -3 -3 -3 -3 -3 -4 -5 -6 -7 -9 -10 -11 -11 -11
2 1 -0 -0 -0 -1 -2 -1 -1 0 -0 -2 -3 -3 -4 -3 -3 -2 -2 -2 -1 -1 -1 -5 -4 0 4 -2 -4 -2 2 -0 0 -0 -6 -3 -0 -1 -10 -8 -4 -1 -0 0 2 4 3 3 4 6 6 3 -1 -4 -4 -4 -4 -5 -5 -4 -4 -5 -5 -6 -5 -5 -4 -5 -5 -6 -7 -7 -7 -7 -7 -7 -7 -7 -7 -7 -7 -8 -7 -7 -7 -6 -5 -4 -3 -2 -2 -2 -2 -3 -4 -5 -6 -7 -9 -10 -11 -11 -11
1 1 -1 -1 -2 -2 -2 -2 -1 0 -0 -2 -3 -3 -3 -3 -3 -2 -1 -1 -2 -2 1 -3 -7 -6 2 2 -2 -4 3 0 3 5 2 -8 -4 2 1 -4 -6 -6 -5 -6 -2 2 5 3 8 13 13 10 7 3 1 1 -1 -3 -4 -4 -4 -4 -4 -5 -5 -5 -4 -4 -5 -5 -6 -7 -7 -7 -7 -7 -8 -8 -8 -9 -9 -9 -9 -8 -8 -7 -6 -4 -2 -1 -1 -1 -2 -2 -4 -5 -6 -7 -9 -10 -10 -10 -11
1 -0 -1 -2 -2 -2 -2 -1 -1 0 1 -1 -2 -4 -3 -2 -3 -3 -2 -1 -1 -1 1 1 -3 -7 -8 -0 -2 -4 -1 2 3 6 11 -2 -7 -5 2 4 -1 -6 -4 -7 -11 -10 -1 -6 -0 10 17 14 12 10 8 7 5 3 -0 -1 -2 -3 -4 -4 -5 -5 -5 -5 -5 -5 -5 -6 -6 -6 -7 -7 -7 -8 -8 -9 -9 -9 -9 -9 -8 -8 -6 -5 -3 -2 -1 -1 -1 -2 -4 -5 -7 -8 -9 -9 -9 -9 -9
0 -1 -2 -2 -3 -3 -2 -1 -1 0 2 2 -0 -3 -4 -3 -3 -4 -4 -2 -2 -2 -1 -1 1 -1 -8 -5 -3 -3 -8 -0 2 3 7 5 -1 -7 -11 4 4 -1 -1 4 -6 -16 -11 -10 -10 -6 7 11 11 11 13 12 11 9 6 4 2 -0 -2 -3 -3 -4 -4 -5 -6 -6 -5 -5 -4 -4 -5 -5 -6 -7 -7 -8 -9 -9 -9 -9 -9 -8 -6 -5 -3 -2 -1 -1 -1 -2 -4 -5 -7 -8 -9 -9 -9 -9 -8
0 -0 -1 -2 -3 -2 -2 -1 -1 -0 2 3 2 -0 -2 -3 -3 -4 -4 -4 -4 -3 -1 -4 -1 1 -1 -6 -4 -2 -7 -4 -1 1 -0 2 5 3 -10 -7 -3 -0 -2 10 8 -3 -16 -9 -9 -11 -13 0 4 5 10 13 12 11 12 9 6 3 1 -1 -2 -2 -3 -4 -5 -5 -4 -4 -4 -3 -3 -4 -4 -5 -6 -7 -8 -8 -9 -9 -9 -8 -7 -5 -4 -3 -2 -1 -2 -3 -4 -6 -7 -8 -9 -9 -9 -9 -8
-0 -1 -1 -2 -2 -2 -2 -1 -1 0 1 3 2 1 -1 -1 -2 -3 -3 -3 -4 -3 -1 -3 -3 -2 2 -3 -5 -4 -1 -4 -1 2 0 -4 1 7 3 -6 -9 -10 -12 -4 4 5 -6 -6 -6 -8 -15 -8 -6 -5 -0 3 5 7 9 8 7 5 3 2 0 -1 -3 -4 -4 -4 -3 -3 -4 -3 -2 -3 -3 -4 -4 -6 -7 -8 -9 -9 -9 -9 -7 -6 -5 -4 -2 -2 -2 -3 -4 -6 -7 -8 -8 -8 -8 -8 -8
-0 -1 -2 -2 -2 -2 -2 -1 -1 -0 1 3 3 2 -1 -1 -1 -2 -2 -3 -4 -4 -1 -1 -2 -3 -1 -0 -3 -5 -2 -4 -2 1 6 -2 -3 0 4 2 -0 -4 -8 -12 -10 -7 -7 -0 -2 -8 -15 -7 -7 -9 -9 -6 -3 -1 0 1 2 2 2 1 1 -0 -3 -4 -5 -4 -4 -3 -3 -3 -3 -3 -4 -4 -5 -5 -7 -8 -9 -9 -9 -9 -8 -6 -5 -4 -3 -2 -2 -3 -4 -6 -7 -7 -7 -7 -7 -8 -8
-1 -1 -2 -2 -2 -3 -3 -2 -2 -1 -0 2 3 2 -1 -1 -1 -1 -2 -3 -4 -4 -2 0 -0 -2 -5 -1 -1 -2 -3 -3 -5 -4 6 5 2 -1 -0 0 1 3 7 1 -3 -8 -16 -5 1 -2 -17 -9 -4 -3 -7 -7 -5 -3 -3 -3 -3 -2 -1 -0 -0 -1 -2 -4 -5 -6 -7 -5 -4 -4 -5 -4 -4 -4 -5 -5 -6 -7 -8 -9 -9 -9 -8 -6 -5 -4 -3 -3 -3 -3 -4 -5 -6 -7 -7 -6 -6 -7 -8
-1 -1 -1 -2 -3 -3 -3 -3 -2 -2 -1 1 2 2 -0 -1 -1 -1 -2 -2 -4 -5 -4 -1 0 -0 -4 -3 -1 0 -2 -2 -5 -7 -3 4 7 6 3 -2 -3 -2 2 2 4 3 -4 -7 -4 -2 -6 -10 -8 -3 0 -3 -4 -4 -3 -3 -3 -3 -2 -1 -1 -2 -3 -4 -5 -6 -7 -6 -5 -5 -6 -5 -5 -5 -5 -5 -6 -6 -7 -8 -8 -8 -7 -6 -5 -4 -4 -4 -4 -4 -5 -6 -6 -6 -6 -6 -6 -6 -7
-2 -1 -1 -2 -3 -3 -4 -3 -3 -2 -1 0 1 2 1 -1 -1 -1 -1 -1 -2 -3 -4 -2 -1 -0 -1 -2 -1 0 -1 -4 -5 -5 -4 -2 1 6 9 2 -0 -2 -4 -5 -3 1 4 1 -4 -7 -2 -5 -9 -9 -2 -0 -1 -3 -4 -4 -4 -3 -2 -1 -1 -2 -3 -3 -4 -4 -6 -7 -7 -6 -6 -6 -6 -5 -5 -5 -5 -6 -7 -7 -7 -7 -7 -5 -4 -3 -3 -4 -5 -6 -7 -7 -7 -7 -6 -6 -6 -6 -7
-1 -1 -2 -3 -3 -3 -4 -4 -3 -2 -1 -0 0 1 2 0 -1 -1 -1 -2 -2 -2 -2 -2 -2 -1 0 0 1 2 2 -3 -6 -6 0 -2 -4 -2 9 8 4 2 1 -2 -4 -4 -2 0 -1 -3 -5 -5 -5 -6 -7 -4 -3 -3 -3 -3 -4 -4 -2 -1 -0 -0 -1 -1 -1 -1 -2 -5 -6 -7 -7 -7 -7 -6 -6 -5 -5 -6 -6 -7 -7 -7 -7 -6 -4 -3 -3 -4 -5 -6 -7 -8 -7 -7 -6 -6 -6 -7 -7
-0 -0 -1 -3 -4 -4 -5 -5 -4 -3 -3 -1 -1 1 3 2 1 -1 -0 -2 -3 -3 -3 -2 -2 -1 -0 1 1 2 3 1 -4 -7 -3 0 -3 -6 1 7 7 5 4 2 0 -1 -1 -3 -2 -1 -3 -6 -6 -4 -5 -4 -5 -6 -7 -4 -2 -1 -2 -1 -0 0 1 2 2 2 2 -1 -3 -5 -6 -7 -7 -6 -6 -5 -5 -5 -6 -7 -7 -8 -7 -6 -5 -4 -3 -4 -5 -6 -7 -7 -7 -6 -5 -5 -6 -6 -7
Height
5855 5855 5854 5854 5854 5854 5854 5853 5853 5853 5853 5853 5853 5852 5852 5852 5852 5852 5852 5851 5851 5851 5851 5851 5851 5851 5851 5851 5851 5850 5850 5850 5850 5849 5849 5849 5848 5848 5848 5848 5848 5848 5847 5847 5847 5847 5846 5846 5846 5846 5846 5846 5846 5846 5846 5845 5845 5845 5845 5845 5845 5845 5845 5846 5846 5846 5846 5846 5847 5847 5847 5847 5848 5848 5849 5849 5849 5849 5849 5849 5849 5849 5849 5849 5849 5849 5849 5850 5850 5851 5851 5851 5852 5852 5853 5853 5854 5854 5855 5855 5856 5856 5856
5854 5854 5853 5853 5853 5853 5853 5852 5852 5852 5852 5852 5851 5851 5851 5851 5851 5851 5851 5851 5850 5850 5850 5850 5850 5850 5850 5849 5849 5849 5849 5849 5848 5848 5848 5847 5847 5847 5847 5846 5846 5846 5846 5846 5846 5846 5845 5845 5845 5845 5844 5844 5844 5844 5844 5844 5844 5844 5844 5844 5843 5843 5843 5844 5844 5844 5844 5844 5844 5845 5845 5845 5845 5846 5846 5846 5846 5847 5847 5847 5847 5847 5847 5847 5847 5847 5847 5847 5847 5848 5848 5849 5849 5850 5850 5851 5851 5851 5852 5852 5853 5853 5854
5853 5853 5852 5852 5852 5852 5852 5851 5851 5851 5851 5851 5851 5851 5850 5850 5850 5850 5850 5850 5849 5849 5849 5849 5849 5848 5848 5848 5848 5848 5848 5847 5847 5847 5847 5846 5846 5846 5846 5845 5845 5845 5845 5845 5845 5844 5844 5844 5843 5843 5843 5843 5843 5843 5842 5842 5842 5842 5842 5842 5842 5842 5842 5842 5842 5842 5842 5842 5842 5842 5842 5843 5843 5843 5843 5843 5844 5844 5845 5845 5845 5845 5845 5845 5845 5845 5845 5845 5845 5845 5846 5846 5846 5847 5847 5848 5848 5849 5849 5850 5850 5851 5851
5852 5852 5851 5851 5851 5851 5851 5851 5851 5850 5850 5850 5850 5850 5849 5849 5849 5849 5849 5848 5848 5848 5848 5848 5847 5847 5847 5847 5847 5846 5846 5846 5846 5846 5846 5845 5845 5845 5844 5844 5844 5844 5843 5843 5843 5843 5843 5842 5842 5842 5841 5841 5841 5841 5841 5841 5841 5841 5840 5840 5840 5840 5840 5840 5840 5840 5840 5840 5841 5841 5841 5841 5841 5841 5841 5841 5841 5841 5842 5842 5843 5843 5843 5843 5843 5843 5843 5843 5843 5843 5843 5843 5844 5844 5844 5845 5845 5846 5846 5847 5847 5848 5849
5851 5851 5851 5851 5850 5850 5850 5850 5850 5849 5849 5849 5849 5849 5848 5848 5848 5848 5847 5847 5847 5847 5847 5846 5846 5846 5846 5846 5846 5845 5845 5845 5845 5845 5844 5844 5844 5843 5843 5843 5842 5842 5842 5842 5842 5841 5841 5841 5841 5840 5840 5840 5840 5839 5839 5839 5839 5839 5838 5838 5838 5838 5838 5838 5838 5838 5838 5838 5838 5838 5838 5838 5838 5839 5839 5839 5839 5839 5839 5840 5840 5840 5841 5841 5841 5841 5841 5841 5841 5841 5841 5841 5841 5841 5841 5842 5842 5843 5843 5844 5844 5845 5846
5850 5850 5850 5850 5849 5849 5849 5849 5849 5848 5848 5848 5848 5848 5847 5847 5847 5847 5846 5846 5846 5846 5846 5845 5845 5845 5845 5845 5844 5844 5844 5844 5843 5843 5843 5843 5842 5842 5842 5841 5841 5841 5841 5840 5840 5840 5840 5839 5839 5839 5838 5838 5838 5838 5837 5837 5837 5837 5836 5836 5836 5836 5836 5836 5836 5836 5836 5836 5836 5836 5836 5836 5836 5836 5836 5836 5836 5837 5837 5837 5837 5837 5838 5838 5838 5839 5839 5839 5839 5839 5839 5838 5838 5838 5839 5839 5839 5840 5840 5841 5841 5841 5842
5849 5849 5849 5849 5848 5848 5848 5848 5847 5847 5847 5847 5847 5847 5846 5846 5846 5846 5845 5845 5845 5845 5844 5844 5844 5844 5843 5843 5843 5843 5842 5842 5842 5842 5841 5841 5841 5841 5840 5840 5840 5839 5839 5839 5838 5838 5838 5838 5837 5837 5837 5836 5836 5836 5836 5835 5835 5835 5835 5834 5834 5834 5834 5834 5834 5834 5834 5834 5834 5834 5834 5834 5834 5834 5834 5834 5834 5834 5834 5835 5835 5835 5835 5835 5835 5836 5836 5836 5836 5837 5837 5837 5836 5836 5836 5836 5836 5836 5837 5837 5838 5838 5839
5848 5848 5848 5847 5847 5847 5847 5847 5846 5846 5846 5846 5846 5846 5845 5845 5845 5845 5844 5844 5844 5843 5843 5843 5842 5842 5842 5841 5841 5841 5841 5841 5840 5840 5840 5840 5839 5839 5839 5838 5838 5838 5837 5837 5837 5836 5836 5836 5836 5835 5835 5835 5834 5834 5834 5833 5833 5833 5832 5832 5832 5832 5832 5832 5831 5831 5831 5831 5831 5831 5831 5831 5831 5831 5831 5831 5831 5832 5832 5832 5832 5832 5832 5832 5832 5833 5833 5833 5834 5834 5834 5835 5835 5835 5835 5834 5834 5834 5834 5834 5834 5835 5835
5847 5847 5847 5846 5846 5846 5846 5846 5845 5845 5845 5845 5844 5844 5844 5844 5844 5843 5843 5843 5842 5842 5842 5841 5841 5841 5840 5840 5840 5840 5839 5839 5839 5838 5838 5838 5838 5837 5837 5837 5836 5836 5836 5835 5835 5834 5834 5834 5833 5833 5833 5832 5832 5832 5831 5831 5831 5831 5830 5830 5830 5830 5829 5829 5829 5829 5829 5829 5829 5829 5829 5829 5829 5829 5829 5829 5829 5829 5829 5829 5829 5829 5829 5830 5830 5830 5830 5830 5830 5831 5831 5831 5832 5832 5832 5832 5832 5832 5832 5831 5831 5831 5832
5847 5846 5846 5846 5845 5845 5845 5844 5844 5844 5844 5843 5843 5843 5843 5842 5842 5842 5841 5841 5841 5841 5840 5840 5840 5839 5839 5838 5838 5838 5837 5837 5837 5836 5836 5836 5836 5836 5835 5835 5834 5834 5834 5833 5833 5832 5832 5832 5831 5831 5831 5830 5830 5830 5829 5829 5829 5829 5828 5828 5828 5827 5827 5827 5827 5827 5826 5826 5826 5826 5826 5826 5826 5826 5826 5826 5826 5826 5826 5826 5826 5826 5826 5826 5827 5827 5827 5827 5827 5827 5828 5828 5828 5829 5829 5829 5830 5830 5830 5830 5829 5829 5829
5846 5846 5845 5845 5844 5844 5844 5843 5843 5842 5842 5842 5841 5841 5841 5841 5841 5840 5840 5840 5839 5839 5839 5838 5838 5837 5837 5837 5836 5836 5836 5835 5835 5835 5834 5834 5834 5833 5833 5833 5832 5832 5831 5831 5831 5831 5830 5830 5829 5829 5829 5828 5828 5827 5827 5827 5826 5826 5826 5826 5826 5825 5825 5825 5825 5825 5824 5824 5824 5824 5824 5824 5824 5824 5824 5824 5824 5824 5824 5824 5824 5824 5824 5824 5824 5824 5824 5824 5824 5824 5824 5825 5825 5825 5826 5826 5826 5826 5827 5827 5827 5827 5827
5845 5844 5844 5844 5843 5843 5842 5842 5842 5841 5841 5841 5840 5840 5840 5839 5839 5839 5838 5838 5838 5837 5837 5837 5836 5836 5836 5835 5835 5834 5834 5833 5833 5832 5832 5832 5831 5831 5831 5831 5830 5830 5830 5829 5829 5828 5828 5827 5827 5827 5826 5826 5826 5825 5825 5825 5824 5824 5824 5824 5823 5823 5823 5823 5822 5822 5822 5822 5822 5821 5821 5821 5821 5821 5821 5821 5821 5821 5821 5821 5821 5821 5821 5821 5821 5821 5821 5821 5821 5821 5821 5821 5822 5822 5822 5822 5822 5823 5823 5824 5824 5824 5825
5843 5843 5843 5842 5842 5841 5841 5841 5841 5840 5840 5839 5839 5838 5838 5837 5837 5837 5836 5836 5836 5836 5835 5835 5835 5834 5834 5833 5833 5832 5832 5831 5831 5831 5830 5830 5829 5829 5829 5828 5828 5828 5827 5827 5826 5826 5826 5825 5825 5825 5824 5824 5823 5823 5823 5822 5822 5822 5821 5821 5821 5821 5821 5820 5820 5820 5820 5819 5819 5819 5819 5819 5818 5818 5818 5818 5818 5818 5818 5818 5818 5818 5818 5818 5818 5818 5818 5818 5819 5819 5819 5819 5819 5819 5819 5819 5819 5819 5820 5820 5820 5821 5821
5842 5842 5841 5841 5841 5840 5840 5840 5839 5839 5838 5838 5837 5837 5836 5836 5836 5835 5835 5834 5834 5834 5833 5833 5832 5832 5832 5831 5831 5830 5830 5829 5829 5828 5828 5827 5827 5826 5826 5826 5826 5825 5825 5824 5824 5824 5823 5823 5823 5822 5822 5822 5821 5821 5821 5820 5820 5819 5819 5819 5819 5818 5818 5818 5817 5817 5817 5817 5816 5816 5816 5816 5816 5815 5815 5815 5815 5815 5815 5815 5815 5815 5815 5815 5815 5815 5815 5815 5816 5816 5816 5816 5816 5816 5816 5816 5816 5816 5816 5816 5816 5817 5817
5841 5841 5840 5840 5840 5839 5839 5838 5838 5837 5837 5836 5836 5836 5835 5834 5834 5834 5833 5833 5832 5832 5831 5831 5831 5830 5830 5829 5829 5828 5828 5827 5827 5826 5826 5825 5825 5824 5824 5823 5823 5823 5822 5822 5821 5821 5821 5821 5820 5820 5820 5819 5819 5819 5818 5818 5817 5817 5817 5816 5816 5816 5816 5815 5815 5815 5814 5814 5814 5814 5813 5813 5813 5812 5812 5812 5812 5812 5811 5811 5811 5811 5811 5811 5811 5811 5811 5812 5812 5812 5812 5812 5812 5812 5812 5812 5812 5812 5812 5813 5813 5813 5814
5840 5839 5839 5839 5838 5838 5837 5837 5836 5836 5836 5835 5835 5834 5833 5833 5832 5832 5831 5831 5831 5830 5829 5829 5828 5828 5827 5827 5826 5826 5826 5825 5825 5824 5824 5823 5822 5822 5821 5821 5821 5820 5820 5819 5819 5819 5818 5818 5818 5817 5817 5817 5816 5816 5816 5815 5815 5815 5814 5814 5814 5813 5813 5812 5812 5812 5812 5811 5811 5811 5811 5810 5810 5810 5809 5809 5809 5809 5808 5808 5808 5808 5808 5808 5808 5808 5808 5808 5808 5808 5808 5808 5809 5809 5809 5809 5809 5809 5809 5809 5809 5809 5810
5838 5838 5838 5837 5837 5836 5836 5835 5835 5834 5834 5833 5833 5832 5832 5831 5831 5830 5830 5829 5829 5828 5827 5827 5826 5826 5825 5825 5824 5824 5823 5823 5822 5822 5821 5821 5820 5820 5819 5819 5818 5818 5817 5817 5816 5816 5816 5815 5815 5815 5814 5814 5814 5813 5813 5813 5812 5812 5811 5811 5811 5811 5810 5810 5809 5809 5809 5808 5808 5808 5807 5807 5807 5807 5806 5806 5806 5806 5805 5805 5805 5805 5805 5805 5805 5804 5804 5804 5804 5804 5804 5804 5805 5805 5805 5805 5805 5805 5805 5806 5806 5806 5806
5837 5837 5836 5836 5836 5835 5835 5834 5833 5833 5832 5832 5831 5831 5831 5830 5829 5829 5828 5827 5827 5826 5826 5825 5824 5824 5823 5823 5822 5821 5821 5821 5820 5819 5819 5818 5818 5817 5817 5816 5816 5815 5815 5814 5814 5813 5813 5812 5812 5812 5811 5811 5811 5811 5810 5810 5809 5809 5809 5808 5808 5807 5807 5807 5806 5806 5806 5805 5805 5805 5804 5804 5804 5804 5803 5803 5802 5802 5802 5802 5801 5801 5801 5801 5801 5801 5801 5801 5801 5801 5801 5801 5801 5801 5801 5801 5801 5801 5801 5801 5802 5802 5802
5836 5835 5835 5834 5834 5833 5833 5832 5832 5831 5831 5830 5830 5829 5829 5828 5828 5827 5826 5826 5825 5825 5824 5823 5822 5822 5821 5821 5820 5819 5819 5818 5818 5817 5816 5816 5816 5815 5814 5814 5813 5813 5812 5812 5811 5811 5810 5810 5809 5809 5808 5808 5808 5807 5807 5806 5806 5806 5806 5805 5805 5804 5804 5803 5803 5803 5802 5802 5802 5801 5801 5801 5801 5800 5800 5800 5799 5799 5799 5798 5798 5798 5798 5797 5797 5797 5797 5797 5797 5797 5797 5797 5797 5796 5796 5797 5797 5797 5797 5797 5797 5798 5798
5835 5834 5833 5833 5832 5832 5831 5831 5831 5830 5829 5829 5828 5828 5827 5826 5826 5825 5825 5824 5823 5823 5822 5821 5821 5820 5819 5819 5818 5817 5816 5816 5815 5815 5814 5813 5813 5812 5812 5811 5811 5810 5810 5809 5808 5808 5807 5807 5806 5806 5806 5805 5805 5804 5804 5803 5803 5802 5802 5802 5801 5801 5801 5800 5800 5799 5799 5798 5798 5798 5797 5797 5797 5797 5796 5796 5796 5795 5795 5795 5795 5794 5794 5794 5794 5793 5793 5793 5793 5793 5793 5793 5793 5793 5793 5792 5793 5793 5793 5793 5793 5793 5794
5833 5832 5832 5831 5831 5831 5830 5830 5829 5828 5828 5827 5826 5826 5826 5825 5824 5824 5823 5822 5821 5821 5820 5820 5819 5818 5817 5816 5816 5815 5815 5814 5813 5812 5812 5811 5811 5810 5809 5809 5808 5807 5807 5806 5806 5805 5804 5804 5803 5803 5802 5802 5801 5801 5801 5800 5800 5799 5799 5798 5798 5797 5797 5796 5796 5796 5795 5795 5795 5794 5794 5793 5793 5793 5792 5792 5792 5791 5791 5791 5791 5791 5790 5790 5790 5790 5789 5790 5789 5789 5789 5789 5789 5789 5788 5788 5788 5788 5789 5789 5789 5789 5789
5831 5831 5831 5830 5830 5829 5828 5828 5827 5827 5826 5826 5825 5824 5824 5823 5822 5821 5821 5820 5820 5819 5818 5817 5817 5816 5815 5815 5814 5813 5812 5812 5811 5810 5809 5809 5808 5807 5806 5806 5805 5805 5804 5803 5803 5802 5801 5801 5800 5800 5799 5799 5798 5798 5797 5797 5796 5796 5795 5795 5794 5794 5793 5793 5792 5792 5791 5791 5791 5790 5790 5790 5789 5789 5789 5788 5788 5788 5787 5787 5787 5786 5786 5786 5786 5786 5785 5786 5785 5785 5785 5785 5785 5785 5784 5784 5784 5784 5784 5784 5784 5784 5785
5830 5830 5829 5828 5828 5827 5827 5826 5826 5825 5824 5824 5823 5822 5821 5821 5820 5820 5819 5818 5817 5816 5816 5815 5814 5814 5813 5812 5811 5811 5810 5809 5809 5808 5807 5806 5806 5805 5804 5803 5803 5802 5801 5801 5800 5799 5798 5798 5797 5796 5796 5795 5795 5794 5794 5793 5793 5792 5791 5791 5790 5790 5789 5789 5788 5788 5787 5787 5787 5786 5786 5786 5785 5785 5785 5784 5784 5784 5783 5783 5783 5782 5782 5782 5782 5781 5781 5781 5781 5781 5781 5781 5781 5780 5780 5780 5780 5780 5780 5780 5780 5780 5780
5829 5828 5827 5827 5826 5826 5825 5824 5824 5823 5822 5822 5821 5820 5820 5819 5818 5817 5816 5816 5815 5814 5814 5813 5812 5811 5811 5810 5809 5808 5807 5807 5806 5805 5804 5804 5803 5802 5801 5801 5800 5799 5798 5798 5797 5796 5796 5795 5794 5793 5793 5792 5791 5791 5790 5790 5789 5788 5788 5787 5786 5786 5786 5785 5785 5784 5783 5783 5783 5782 5782 5781 5781 5781 5780 5780 5780 5779 5779 5779 5779 5778 5778 5778 5778 5777 5777 5777 5776 5776 5776 5776 5776 5776 5776 5776 5775 5775 5775 5775 5775 5775 5775
5827 5826 5826 5825 5825 5824 5823 5823 5822 5821 5821 5820 5819 5818 5817 5817 5816 5815 5814 5814 5813 5812 5811 5810 5810 5809 5808 5807 5806 5805 5805 5804 5803 5802 5801 5801 5800 5799 5799 5798 5797 5796 5796 5795 5794 5793 5792 5792 5791 5790 5789 5789 5788 5787 5786 5786 5786 5785 5784 5783 5783 5782 5781 5781 5781 5780 5780 5779 5779 5778 5778 5777 5777 5776 5776 5776 5775 5775 5775 5775 5774 5774 5774 5773 5773 5773 5773 5772 5772 5772 5772 5772 5771 5771 5771 5771 5771 5770 5771 5770 5770 5770 5770
5826 5825 5824 5824 5823 5822 5821 5821 5820 5819 5818 5818 5817 5816 5815 5814 5814 5813 5812 5811 5811 5810 5809 5808 5807 5806 5805 5804 5803 5802 5802 5801 5800 5799 5798 5798 5797 5796 5796 5795 5794 5793 5792 5791 5791 5790 5789 5788 5788 5787 5786 5785 5785 5784 5783 5782 5782 5781 5780 5780 5779 5778 5777 5777 5776 5776 5775 5775 5774 5774 5773 5773 5772 5772 5772 5771 5771 5771 5770 5770 5770 5769 5769 5769 5769 5768 5768 5768 5768 5767 5767 5767 5767 5767 5766 5766 5766 5766 5766 5765 5765 5765 5765
5824 5823 5822 5822 5821 5820 5820 5819 5818 5817 5816 5816 5815 5814 5813 5812 5811 5811 5810 5809 5808 5807 5806 5805 5804 5803 5803 5802 5801 5800 5799 5798 5797 5796 5795 5794 5794 5793 5792 5791 5791 5790 5789 5788 5787 5787 5786 5785 5784 5783 5783 5782 5781 5780 5779 5778 5778 5777 5776 5776 5775 5774 5774 5773 5772 5772 5771 5771 5770 5770 5769 5769 5768 5768 5767 5767 5766 5766 5766 5765 5765 5765 5765 5764 5764 5764 5763 5763 5763 5762 5762 5762 5762 5762 5761 5761 5761 5761 5761 5760 5760 5760 5760
5822 5821 5820 5820 5819 5818 5817 5817 5816 5815 5814 5814 5813 5812 5811 5810 5809 5808 5807 5806 5805 5805 5803 5803 5802 5801 5800 5799 5798 5797 5796 5795 5794 5793 5792 5791 5790 5789 5789 5788 5787 5786 5786 5785 5784 5783 5782 5781 5781 5780 5779 5778 5777 5776 5776 5775 5774 5773 5772 5772 5771 5770 5770 5769 5768 5767 5767 5766 5766 5766 5765 5764 5764 5763 5763 5762 5762 5761 5761 5761 5760 5760 5760 5760 5759 5759 5758 5758 5758 5758 5757 5757 5757 5756 5756 5756 5756 5756 5755 5755 5755 5755 5755
5820 5819 5818 5817 5817 5816 5815 5815 5814 5813 5812 5811 5810 5809 5809 5808 5806 5806 5805 5804 5803 5802 5801 5800 5799 5798 5797 5796 5795 5794 5793 5792 5791 5790 5789 5788 5787 5786 5785 5784 5783 5783 5782 5781 5781 5780 5779 5778 5777 5776 5776 5775 5774 5773 5772 5771 5770 5769 5768 5767 5767 5766 5765 5765 5764 5763 5763 5762 5761 5761 5761 5760 5760 5759 5758 5758 5757 5757 5756 5756 5755 5755 5755 5754 5754 5754 5754 5753 5753 5753 5752 5752 5752 5751 5751 5750 5750 5750 5750 5750 5750 5750 5750
5817 5816 5816 5815 5815 5814 5813 5812 5811 5811 5810 5809 5808 5807 5806 5805 5804 5803 5802 5801 5800 5799 5798 5797 5796 5795 5794 5793 5792 5791 5790 5789 5788 5787 5786 5785 5784 5783 5782 5781 5780 5779 5778 5777 5777 5776 5775 5774 5773 5772 5772 5771 5770 5769 5768 5767 5766 5765 5764 5763 5763 5762 5761 5760 5760 5759 5758 5758 5757 5757 5756 5756 5755 5754 5754 5753 5753 5752 5751 5751 5750 5750 5749 5749 5749 5749 5748 5748 5748 5747 5747 5746 5746 5746 5745 5745 5745 5745 5744 5744 5744 5744 5744
5815 5814 5814 5813 5812 5811 5811 5810 5809 5808 5807 5806 5806 5804 5803 5802 5801 5801 5800 5798 5797 5796 5795 5794 5793 5792 5791 5790 5789 5788 5787 5786 5785 5784 5783 5781 5781 5780 5779 5777 5776 5776 5775 5774 5773 5772 5771 5770 5770 5769 5768 5767 5766 5765 5764 5763 5762 5761 5760 5759 5758 5758 5757 5756 5755 5755 5754 5753 5753 5752 5751 5751 5750 5750 5749 5748 5748 5747 5746 5746 5745 5745 5744 5744 5743 5743 5743 5742 5742 5742 5741 5741 5740 5740 5739 5739 5739 5738 5738 5738 5738 5738 5738
5813 5812 5811 5811 5810 5809 5808 5807 5806 5806 5805 5804 5803 5802 5801 5800 5799 5798 5797 5796 5795 5794 5793 5791 5791 5789 5788 5787 5786 5785 5784 5783 5782 5781 5780 5778 5777 5776 5775 5774 5773 5772 5771 5770 5769 5768 5767 5766 5765 5764 5764 5763 5762 5761 5760 5759 5758 5757 5756 5755 5754 5753 5752 5751 5751 5750 5749 5749 5748 5747 5747 5746 5746 5745 5744 5743 5743 5742 5741 5741 5740 5739 5739 5738 5738 5737 5737 5736 5736 5736 5735 5735 5734 5734 5733 5733 5732 5732 5732 5732 5731 5731 5732
5811 5810 5809 5808 5807 5806 5806 5805 5804 5803 5802 5801 5800 5799 5798 5797 5796 5795 5794 5793 5792 5791 5790 5789 5787 5786 5785 5784 5783 5782 5781 5780 5779 5777 5776 5775 5774 5773 5771 5771 5769 5768 5767 5766 5765 5764 5763 5762 5761 5760 5759 5758 5757 5756 5756 5755 5754 5752 5751 5751 5750 5749 5748 5747 5746 5746 5745 5744 5743 5742 5742 5741 5741 5740 5739 5738 5738 5737 5736 5735 5735 5734 5733 5733 5732 5732 5731 5731 5731 5730 5729 5729 5728 5728 5727 5726 5726 5726 5726 5725 5725 5725 5725
5808 5807 5806 5806 5805 5804 5803 5802 5801 5800 5799 5798 5797 5796 5796 5795 5793 5792 5791 5790 5789 5788 5787 5786 5785 5783 5782 5781 5780 5779 5778 5776 5775 5774 5773 5772 5771 5769 5768 5767 5766 5764 5763 5762 5761 5760 5759 5758 5757 5756 5755 5754 5753 5752 5751 5750 5749 5748 5747 5746 5745 5744 5743 5742 5742 5741 5740 5739 5738 5738 5737 5736 5736 5735 5734 5733 5732 5731 5731 5730 5729 5728 5728 5727 5727 5726 5726 5725 5725 5724 5724 5723 5722 5721 5721 5720 5719 5719 5718 5718 5718 5718 5718
5806 5805 5804 5803 5802 5801 5801 5800 5799 5798 5797 5796 5795 5794 5793 5792 5791 5790 5788 5787 5786 5785 5784 5783 5781 5780 5779 5778 5777 5776 5774 5773 5772 5771 5769 5768 5767 5766 5764 5763 5762 5761 5759 5758 5757 5756 5755 5754 5752 5751 5750 5749 5748 5747 5746 5746 5744 5743 5742 5741 5741 5740 5739 5738 5737 5736 5735 5734 5733 5732 5732 5731 5730 5730 5729 5728 5727 5726 5725 5725 5724 5723 5722 5721 5721 5720 5720 5719 5719 5718 5717 5716 5716 5715 5714 5713 5713 5712 5711 5711 5711 5711 5711
5804 5803 5802 5801 5800 5799 5798 5797 5796 5795 5794 5793 5792 5791 5790 5789 5788 5786 5786 5784 5783 5782 5781 5780 5778 5777 5776 5775 5773 5772 5771 5770 5768 5767 5766 5765 5763 5762 5761 5759 5758 5757 5756 5754 5753 5752 5751 5749 5748 5747 5746 5745 5743 5742 5741 5741 5740 5739 5738 5737 5736 5735 5734 5733 5732 5731 5730 5729 5728 5727 5726 5726 5725 5724 5723 5722 5721 5721 5720 5719 5718 5717 5716 5716 5715 5714 5714 5713 5712 5711 5711 5710 5709 5708 5707 5706 5706 5705 5704 5704 5704 5703 5704
5801 5800 5799 5798 5797 5796 5795 5794 5793 5792 5791 5790 5789 5788 5787 5786 5785 5784 5782 5781 5780 5779 5778 5776 5775 5774 5773 5771 5770 5769 5767 5766 5765 5763 5762 5761 5760 5758 5757 5756 5754 5753 5751 5750 5749 5748 5746 5745 5744 5743 5741 5740 5739 5738 5737 5736 5735 5734 5733 5732 5731 5730 5729 5728 5727 5726 5726 5724 5723 5722 5721 5720 5720 5719 5718 5717 5716 5715 5714 5713 5712 5711 5711 5710 5709 5708 5707 5707 5706 5705 5705 5704 5703 5702 5701 5700 5699 5698 5697 5697 5696 5696 5696
5799 5797 5796 5796 5795 5794 5792 5791 5790 5789 5788 5787 5786 5785 5784 5783 5781 5781 5779 5778 5777 5776 5775 5773 5772 5771 5770 5768 5767 5766 5764 5763 5761 5760 5759 5757 5756 5755 5753 5752 5750 5749 5747 5746 5745 5743 5742 5741 5740 5738 5737 5736 5734 5733 5732 5731 5730 5729 5728 5727 5726 5725 5724 5723 5723 5722 5721 5720 5718 5717 5716 5715 5714 5713 5712 5711 5711 5710 5709 5708 5707 5706 5705 5704 5703 5703 5702 5701 5700 5699 5698 5697 5696 5695 5694 5693 5692 5691 5690 5690 5689 5689 5689
5796 5795 5794 5793 5792 5791 5790 5788 5787 5786 5785 5784 5783 5782 5781 5779 5778 5777 5776 5775 5774 5772 5771 5770 5769 5768 5766 5765 5763 5762 5761 5760 5758 5757 5755 5754 5752 5751 5750 5748 5746 5745 5743 5742 5741 5739 5738 5736 5735 5734 5732 5731 5730 5728 5727 5726 5725 5724 5723 5722 5721 5720 5719 5718 5717 5717 5716 5715 5714 5712 5711 5710 5709 5708 5707 5706 5705 5704 5703 5702 5701 5701 5700 5699 5698 5697 5696 5695 5694 5693 5692 5691 5690 5689 5688 5686 5685 5684 5683 5683 5682 5682 5681
5793 5792 5791 5790 5789 5788 5786 5785 5784 5783 5782 5781 5780 5779 5777 5776 5775 5774 5772 5771 5770 5769 5768 5766 5765 5764 5763 5761 5760 5758 5757 5756 5754 5753 5751 5750 5749 5747 5746 5744 5742 5741 5739 5738 5736 5735 5733 5731 5730 5729 5727 5726 5725 5723 5722 5721 5720 5719 5718 5716 5716 5715 5714 5713 5712 5711 5711 5710 5709 5707 5706 5705 5704 5703 5702 5701 5700 5699 5698 5697 5696 5695 5694 5693 5692 5691 5691 5690 5688 5687 5686 5685 5683 5682 5681 5680 5679 5677 5676 5676 5675 5675 5674
5791 5790 5788 5787 5786 5785 5783 5782 5781 5780 5778 5777 5776 5775 5774 5773 5771 5770 5769 5768 5766 5765 5764 5762 5761 5760 5759 5758 5756 5755 5753 5752 5750 5749 5747 5746 5745 5743 5741 5740 5738 5737 5735 5733 5731 5730 5728 5727 5725 5724 5722 5721 5720 5718 5717 5716 5715 5714 5712 5711 5710 5709 5708 5707 5706 5706 5705 5704 5703 5702 5701 5700 5699 5698 5697 5696 5695 5693 5692 5691 5690 5689 5688 5687 5686 5686 5685 5684 5683 5681 5680 5678 5677 5676 5675 5673 5672 5671 5670 5669 5668 5667 5667
5788 5787 5786 5784 5783 5782 5781 5779 5778 5776 5775 5774 5772 5771 5770 5769 5768 5766 5765 5764 5762 5761 5760 5758 5757 5756 5755 5754 5752 5751 5749 5748 5746 5745 5743 5741 5740 5739 5737 5736 5734 5732 5731 5729 5727 5725 5724 5722 5721 5719 5717 5716 5714 5713 5712 5711 5710 5708 5707 5706 5705 5704 5703 5702 5701 5700 5699 5698 5697 5696 5695 5694 5693 5692 5691 5690 5689 5688 5686 5685 5684 5683 5682 5681 5681 5680 5679 5678 5677 5675 5674 5672 5671 5670 5668 5667 5665 5664 5663 5662 5661 5660 5660
5785 5784 5783 5781 5780 5779 5777 5776 5774 5773 5771 5770 5769 5768 5766 5765 5764 5763 5761 5760 5759 5757 5756 5755 5753 5751 5750 5749 5748 5747 5746 5744 5742 5741 5739 5737 5736 5734 5733 5731 5730 5728 5726 5725 5723 5721 5719 5717 5716 5714 5713 5711 5709 5708 5707 5706 5705 5703 5702 5701 5700 5698 5697 5696 5695 5694 5693 5692 5691 5690 5689 5688 5687 5686 5685 5684 5683 5682 5680 5679 5678 5677 5676 5675 5674 5673 5672 5671 5670 5669 5668 5666 5665 5663 5661 5660 5659 5657 5656 5655 5654 5653 5652
5782 5781 5780 5778 5777 5776 5775 5773 5771 5770 5768 5766 5765 5764 5763 5761 5760 5759 5757 5756 5755 5753 5752 5751 5749 5747 5746 5745 5744 5743 5741 5740 5738 5736 5735 5733 5731 5730 5728 5727 5725 5724 5722 5720 5718 5716 5715 5713 5711 5710 5708 5706 5705 5703 5701 5701 5699 5698 5697 5696 5694 5693 5692 5691 5690 5689 5688 5686 5686 5684 5683 5682 5681 5681 5679 5678 5677 5676 5674 5673 5671 5671 5669 5668 5667 5666 5666 5665 5663 5662 5661 5660 5658 5656 5655 5654 5652 5651 5649 5648 5647 5646 5645
5779 5778 5776 5775 5774 5772 5771 5770 5768 5766 5764 5763 5761 5760 5759 5757 5756 5755 5753 5752 5751 5749 5748 5746 5745 5744 5742 5740 5739 5738 5737 5736 5734 5732 5731 5729 5727 5726 5724 5722 5721 5720 5718 5716 5714 5712 5711 5709 5707 5705 5703 5702 5700 5698 5696 5695 5694 5693 5691 5690 5689 5687 5686 5685 5684 5683 5682 5681 5680 5679 5677 5676 5676 5674 5673 5672 5671 5670 5668 5667 5666 5664 5663 5662 5661 5660 5659 5658 5657 5656 5654 5653 5651 5650 5648 5647 5645 5644 5642 5641 5640 5639 5638
5775 5774 5773 5772 5770 5769 5768 5766 5765 5763 5761 5759 5757 5756 5755 5753 5752 5751 5749 5748 5746 5745 5744 5742 5741 5740 5738 5736 5735 5734 5732 5731 5729 5728 5726 5725 5723 5722 5720 5718 5717 5716 5714 5712 5710 5708 5706 5705 5703 5701 5699 5697 5695 5693 5691 5690 5689 5687 5686 5685 5683 5682 5681 5680 5678 5677 5676 5675 5674 5673 5671 5671 5670 5668 5667 5666 5665 5664 5663 5661 5660 5659 5657 5656 5655 5654 5653 5652 5651 5649 5648 5646 5645 5643 5642 5640 5638 5636 5635 5634 5633 5632 5631
5772 5771 5770 5768 5766 5765 5764 5762 5761 5759 5757 5755 5754 5752 5751 5749 5748 5747 5745 5744 5742 5741 5739 5738 5736 5735 5734 5732 5731 5729 5728 5726 5725 5723 5721 5720 5719 5718 5716 5714 5713 5711 5710 5708 5706 5704 5702 5701 5698 5696 5695 5692 5691 5688 5687 5685 5684 5682 5681 5679 5678 5677 5676 5674 5673 5672 5671 5669 5668 5667 5666 5665 5664 5663 5661 5661 5659 5658 5657 5656 5655 5653 5652 5651 5650 5649 5647 5646 5645 5643 5641 5640 5638 5636 5635 5633 5631 5629 5628 5627 5626 5625 5624
5768 5767 5766 5764 5763 5761 5760 5758 5757 5755 5753 5751 5750 5748 5746 5745 5744 5742 5741 5740 5738 5736 5735 5733 5732 5731 5730 5728 5727 5725 5723 5721 5720 5718 5717 5715 5714 5713 5712 5710 5708 5707 5706 5704 5702 5700 5698 5696 5694 5692 5690 5688 5686 5684 5682 5681 5679 5677 5676 5675 5673 5672 5671 5669 5668 5667 5666 5664 5663 5661 5660 5659 5658 5657 5656 5655 5653 5652 5651 5650 5649 5648 5646 5645 5644 5643 5642 5640 5639 5637 5635 5634 5632 5630 5628 5626 5624 5623 5621 5620 5619 5618 5617
5764 5763 5761 5760 5758 5757 5756 5754 5753 5751 5749 5747 5746 5744 5742 5741 5739 5738 5737 5735 5734 5732 5730 5729 5727 5726 5725 5724 5723 5721 5719 5717 5715 5713 5712 5711 5709 5707 5706 5706 5705 5703 5701 5700 5698 5696 5694 5692 5691 5689 5686 5684 5682 5680 5678 5676 5675 5673 5671 5670 5668 5667 5666 5664 5663 5662 5661 5659 5658 5656 5655 5654 5653 5651 5650 5649 5647 5646 5645 5644 5643 5642 5641 5640 5638 5637 5636 5635 5633 5631 5629 5628 5626 5624 5621 5620 5618 5616 5614 5613 5611 5611 5610
5760 5759 5757 5756 5754 5753 5751 5750 5749 5747 5745 5743 5741 5740 5738 5737 5735 5734 5732 5731 5729 5728 5726 5724 5723 5721 5720 5719 5718 5717 5716 5713 5711 5709 5707 5706 5704 5703 5701 5700 5700 5699 5697 5695 5694 5692 5690 5689 5687 5686 5684 5681 5678 5676 5674 5672 5671 5669 5667 5666 5664 5662 5661 5660 5659 5657 5656 5654 5653 5651 5650 5648 5647 5646 5645 5643 5642 5641 5639 5638 5637 5636 5635 5634 5633 5632 5631 5629 5627 5626 5623 5621 5620 5617 5615 5613 5611 5609 5608 5606 5605 5604 5603
5756 5755 5753 5751 5750 5748 5747 5746 5744 5743 5741 5739 5737 5736 5734 5732 5731 5730 5728 5726 5725 5723 5722 5720 5718 5716 5716 5714 5712 5711 5711 5709 5707 5705 5703 5700 5699 5698 5696 5695 5694 5693 5692 5691 5689 5687 5686 5684 5683 5683 5681 5678 5675 5673 5671 5669 5667 5665 5663 5662 5660 5658 5657 5655 5654 5652 5651 5650 5648 5646 5645 5643 5642 5640 5639 5637 5636 5635 5633 5632 5631 5630 5629 5628 5627 5626 5625 5623 5621 5620 5617 5616 5613 5611 5609 5606 5605 5603 5601 5600 5598 5597 5596
5752 5750 5749 5747 5745 5744 5742 5741 5740 5739 5737 5736 5733 5732 5730 5728 5726 5725 5724 5722 5720 5719 5717 5716 5714 5712 5711 5710 5708 5706 5706 5704 5703 5701 5699 5696 5694 5693 5692 5691 5689 5687 5687 5685 5683 5681 5681 5679 5678 5677 5676 5674 5671 5670 5668 5666 5664 5662 5660 5658 5656 5654 5652 5651 5649 5648 5646 5645 5643 5641 5640 5638 5636 5635 5633 5632 5630 5629 5627 5626 5625 5624 5623 5622 5621 5620 5618 5617 5615 5613 5611 5609 5607 5604 5602 5600 5598 5596 5594 5593 5591 5590 5588
5748 5746 5744 5742 5741 5740 5738 5737 5736 5735 5733 5731 5730 5728 5726 5724 5722 5721 5719 5717 5716 5714 5712 5711 5709 5707 5706 5705 5703 5701 5700 5699 5698 5696 5694 5692 5689 5687 5686 5686 5685 5683 5682 5681 5678 5675 5674 5673 5671 5670 5670 5669 5666 5665 5664 5662 5660 5658 5656 5654 5651 5650 5648 5646 5644 5643 5641 5639 5637 5636 5634 5633 5631 5630 5628 5626 5625 5623 5621 5620 5619 5617 5616 5615 5614 5613 5612 5611 5609 5607 5605 5603 5601 5598 5596 5593 5591 5589 5587 5586 5584 5583 5581
5744 5742 5740 5738 5737 5735 5734 5733 5731 5730 5729 5727 5725 5723 5721 5720 5718 5716 5714 5712 5711 5709 5708 5706 5704 5703 5701 5700 5699 5697 5695 5694 5693 5691 5689 5687 5685 5683 5680 5680 5679 5678 5676 5676 5674 5670 5668 5667 5666 5663 5662 5662 5661 5658 5658 5657 5655 5653 5651 5649 5647 5645 5643 5641 5639 5637 5636 5634 5632 5630 5629 5627 5626 5624 5622 5621 5619 5617 5616 5614 5612 5611 5610 5609 5608 5607 5606 5604 5602 5601 5598 5596 5594 5591 5589 5586 5584 5582 5581 5579 5577 5575 5573
5739 5737 5736 5734 5732 5731 5730 5728 5727 5726 5725 5723 5721 5719 5717 5716 5714 5711 5710 5708 5706 5704 5703 5701 5699 5698 5696 5694 5693 5692 5691 5689 5688 5686 5684 5682 5680 5679 5676 5674 5673 5672 5671 5670 5669 5666 5663 5662 5660 5658 5656 5656 5654 5652 5651 5651 5649 5647 5646 5644 5642 5640 5638 5636 5634 5632 5630 5628 5626 5625 5623 5621 5620 5618 5616 5615 5613 5611 5610 5608 5606 5605 5603 5602 5601 5600 5599 5597 5596 5594 5592 5590 5587 5585 5582 5580 5577 5576 5573 5571 5569 5567 5566
5735 5733 5731 5730 5728 5726 5725 5724 5722 5721 5720 5718 5716 5715 5713 5711 5709 5707 5705 5703 5701 5699 5698 5696 5695 5693 5692 5690 5688 5686 5686 5685 5683 5682 5680 5677 5675 5674 5672 5669 5668 5666 5665 5664 5662 5661 5658 5657 5656 5653 5651 5651 5649 5647 5645 5644 5643 5641 5639 5638 5636 5635 5633 5631 5629 5627 5625 5623 5621 5619 5617 5616 5614 5612 5610 5609 5607 5605 5603 5602 5600 5598 5597 5596 5595 5593 5592 5591 5589 5587 5585 5583 5581 5578 5576 5573 5571 5569 5566 5564 5562 5560 5558
5731 5729 5727 5725 5723 5722 5720 5719 5718 5716 5715 5714 5712 5710 5708 5706 5704 5702 5701 5698 5696 5695 5693 5691 5690 5688 5686 5685 5683 5681 5680 5679 5678 5677 5676 5674 5671 5669 5667 5665 5663 5661 5660 5658 5657 5655 5653 5652 5651 5649 5646 5646 5645 5643 5641 5639 5638 5637 5635 5633 5631 5629 5628 5626 5624 5622 5620 5618 5616 5614 5612 5610 5608 5606 5604 5603 5601 5599 5597 5596 5594 5592 5591 5589 5588 5587 5586 5584 5582 5580 5578 5576 5574 5571 5569 5567 5564 5562 5560 5557 5554 5552 5549
5726 5724 5722 5721 5719 5717 5716 5714 5713 5711 5710 5709 5707 5706 5703 5701 5700 5698 5696 5694 5692 5690 5688 5687 5685 5683 5681 5680 5678 5676 5675 5674 5672 5671 5671 5669 5667 5665 5663 5660 5658 5657 5655 5654 5652 5651 5648 5646 5646 5645 5642 5641 5640 5639 5637 5635 5633 5632 5630 5628 5626 5625 5623 5621 5619 5617 5615 5613 5611 5608 5606 5605 5603 5601 5599 5597 5595 5593 5591 5590 5588 5586 5585 5583 5582 5581 5579 5577 5576 5573 5571 5569 5566 5564 5562 5560 5557 5555 5552 5550 5547 5544 5541
5722 5720 5718 5716 5714 5712 5711 5709 5708 5706 5705 5704 5703 5701 5699 5697 5695 5693 5691 5689 5687 5685 5683 5682 5680 5679 5677 5675 5673 5672 5670 5668 5667 5666 5665 5664 5663 5661 5659 5656 5654 5652 5650 5649 5647 5646 5644 5642 5640 5639 5638 5636 5635 5634 5633 5631 5629 5627 5626 5624 5622 5620 5618 5617 5615 5613 5611 5608 5606 5604 5601 5599 5597 5595 5593 5591 5589 5587 5586 5584 5581 5580 5578 5576 5575 5574 5572 5571 5569 5567 5564 5562 5559 5557 5555 5552 5550 5548 5545 5542 5539 5536 5533
5718 5716 5714 5712 5710 5708 5706 5705 5703 5702 5701 5699 5698 5696 5695 5692 5691 5689 5686 5685 5682 5681 5679 5677 5675 5674 5672 5670 5668 5667 5665 5663 5661 5660 5660 5658 5656 5656 5655 5653 5650 5648 5646 5644 5642 5641 5639 5637 5635 5633 5632 5631 5630 5629 5627 5626 5625 5623 5621 5619 5617 5616 5614 5612 5611 5608 5606 5604 5601 5599 5596 5594 5591 5589 5587 5585 5583 5581 5579 5577 5575 5573 5571 5570 5569 5567 5566 5564 5562 5560 5557 5555 5552 5549 5547 5545 5542 5540 5537 5535 5531 5528 5525
5714 5711 5710 5707 5705 5703 5701 5700 5699 5697 5696 5695 5693 5692 5690 5688 5686 5684 5682 5680 5678 5676 5674 5672 5670 5669 5667 5666 5664 5662 5660 5658 5656 5654 5654 5652 5651 5650 5650 5649 5646 5644 5642 5640 5638 5636 5634 5632 5631 5629 5627 5625 5624 5624 5623 5621 5620 5618 5616 5615 5613 5611 5610 5608 5606 5604 5602 5599 5597 5594 5592 5589 5586 5584 5581 5579 5577 5575 5573 5571 5569 5567 5565 5563 5562 5560 5559 5557 5555 5553 5551 5548 5545 5542 5540 5537 5535 5532 5530 5526 5523 5520 5516